Torna al catalogo

BREEZE-M R/B

LostHEO
NORAD 35494·ROCKET BODY·🇷🇺 Russia

Lanciato Jun 30, 2009 da Baikonur Cosmodrome

Loading…

Prossimi Passaggi (prossime 24 ore)

TLE

ObsoletoSource: Space-Track

Epoca: Jul 31, 2026, 05:54 UTC

1 35494U 09034B   26212.24634788  .00000140  00000-0  00000+0 0  9990
2 35494  23.2680 255.8088 6083978   6.6496 139.5211  2.04371999127552

Traccia BREEZE-M R/B in tempo reale con AllMySat

Download on the App Store